Location: Agadir Mansour Mhndou
(31.2424°N, 8.7730°W)
Time: 05:55:12
(UTC+00:00)

Cosmos 468 - Pass Details

Date: 16 October 2021
Orbit: 762 x 783 km, 74.0° (Epoch: 28 November)

Event Time Altitude Azimuth Distance (km) Brightness Sun altitude
Rises 18:57:04 0° 345° (NNW) 3,260 7.9 -12.5°
Reaches altitude 10° 18:59:28 10° 347° (NNW) 2,326 7.1 -13.0°
Maximum altitude 19:04:45 75° 73° (ENE) 799 4.4 -14.2°
Drops below altitude 10° 19:09:58 10° 159° (SSE) 2,299 6.8 -15.3°
Sets 19:12:20 0° 161° (SSE) 3,219 7.6 -15.8°
